Weather in Yablunitsa

Ukraine / Ivano-Frankovsk District     48°19′16″N   24°29′17″E
temp.,
°C
wind,
m/s
gust,
m/s
humid.,
%
clouds,
%
prec.,
mm/h
press.,
hPa
HPBL,
m
17 august, wed
wed1700:00+13sw219781 0.5 101119
03:00+13w119792 0.5 101127
06:00+12wsw119662 0.0 101121
09:00+15wsw1292100 0.0 1012207
12:00+18wnw128466 1.3 1012671
15:00+18nw128791 5.1 1012529
18:00+18nw128833 3.2 1012478
21:00+15n119736 6.4 101313
18 august, thu
thu1800:00+13n01985 0.4 101411
03:00+12nnw11985 0.4 101411
06:00+12nne11965 0.0 101411
09:00+16nne11883 0.0 1014189
12:00+22nne22543 0.0 10141324
15:00+23ne335041 0.0 10131787
18:00+21ene33622 0.0 1014950
21:00+15ese119133 0.1 101511
19 august, fri
fri1900:00+14sse11925 0.0 101511
03:00+13s11920 0.0 101511
06:00+13sse11925 0.0 101511
09:00+19e12695 0.0 1014245
12:00+24e22495 0.0 10131296
15:00+26ne22425 0.0 10131911
18:00+24ene22525 0.0 1013780
21:00+17ese118128 0.0 101411
20 august, sat
sat2000:00+15s218213 0.0 101514
03:00+15s1175100 0.0 101511
06:00+15s117488 0.0 101312
09:00+21sw126027 0.0 1013152
12:00+28wsw014232 0.0 10121356
15:00+29wnw123710 0.0 10102288
18:00+24ne1163100 0.4 1010331
21:00+16nnw1399100 33.8 1016159
21 august, sun
sun2100:00+15wsw2193100 1.9 101317
03:00+14wsw0191100 1.9 101411
06:00+13e119217 0.0 101312
09:00+17ne1192100 0.0 1013126
12:00+22ene1265100 1.4 1012937
15:00+17ese1193100 5.6 101320
18:00+16nnw1299100 3.4 101375
21:00+15ne1198100 4.2 101315